Main page
METAR-TAF:

METAR-TAF

Airports :

Plant City Airport

Plant City, Florida, United States

latitude: 28-00-01N, longitude: 082-09-51W, elevation: 154 ft

Current weather observation

The report was made 15 minutes ago, at 08:35 UTC
Wind 5 mph from the East/Northeast
Temperature 66°F
Humidity 100%
Pressure 30.12 in. Hg
Visibility: 10 miles
Clear sky

METAR: KPCM 180835Z AUTO 06004KT 10SM CLR 19/19 A3012 RMK AO2

Time: 04:50 (08:50 UTC)


TAF: missing

Weather observations and forecasts of more than 4000 airports (METAR and TAF reports).

The available stations are represented by yellow and red dots on the map.

Hover mouse over dot to see the name of the station.

Then click to see weather observations and forecasts.

To change the map : click on the green buttons with a black cross to zoom in, on the green button with a dash to zoom out, or on the green arrows for adjacent maps.


METAR-TAF: